| time (UTC) | temp F | wind direction | speed MPH | gust MPH | rain 1hr in | rain 24hr in | rain mn in | humidity % | barometer mb |
| 20260506095804 | 55 | 42 | 0.0 | 0.0 | 0.00 | 0.06 | 0.00 | 75 | 1004.2 |
| 20260506094305 | 55 | 42 | 0.0 | 0.0 | 0.00 | 0.06 | 0.00 | 74 | 1004.2 |
| 20260506093805 | 55 | 42 | 0.0 | 0.0 | 0.00 | 0.06 | 0.00 | 74 | 1004.2 |
| 20260506091804 | 56 | 42 | 0.0 | 0.0 | 0.00 | 0.06 | 0.00 | 72 | 1004.2 |
| 20260506091304 | 56 | 42 | 0.0 | 0.0 | 0.00 | 0.06 | 0.00 | 72 | 1004.2 |
| 20260506090804 | 56 | 42 | 0.0 | 0.0 | 0.00 | 0.06 | 0.00 | 72 | 1004.2 |
| 20260506090304 | 56 | 42 | 0.0 | 0.0 | 0.00 | 0.06 | 0.00 | 71 | 1004.2 |
| 20260506084805 | 56 | 42 | 0.0 | 0.0 | 0.00 | 0.06 | 0.00 | 71 | 1004.2 |
| 20260506084304 | 56 | 42 | 0.0 | 0.0 | 0.00 | 0.06 | 0.00 | 71 | 1004.2 |
| 20260506083805 | 57 | 42 | 0.0 | 0.0 | 0.00 | 0.06 | 0.00 | 71 | 1004.4 |
| 20260506081805 | 57 | 42 | 0.0 | 0.0 | 0.00 | 0.06 | 0.00 | 72 | 1004.3 |
| 20260506080804 | 57 | 42 | 0.0 | 0.0 | 0.00 | 0.06 | 0.00 | 72 | 1004.3 |
| 20260506080304 | 57 | 42 | 0.0 | 0.0 | 0.00 | 0.06 | 0.00 | 72 | 1004.3 |
| 20260506071805 | 58 | 42 | 0.0 | 0.0 | 0.00 | 0.06 | 0.00 | 70 | 1004.3 |
| 20260506070305 | 59 | 42 | 0.0 | 2.0 | 0.00 | 0.06 | 0.00 | 68 | 1004.3 |
| 20260506062305 | 59 | 43 | 0.0 | 0.0 | 0.00 | 0.06 | 0.00 | 69 | 1004.3 |
| 20260506060304 | 60 | 289 | 0.0 | 0.0 | 0.00 | 0.06 | 0.00 | 69 | 1004.3 |
| 20260506050804 | 60 | 305 | 0.0 | 0.0 | 0.00 | 0.06 | 0.00 | 73 | 1004.4 |
| 20260506050305 | 60 | 305 | 0.0 | 0.0 | 0.00 | 0.06 | 0.00 | 74 | 1004.4 |
| 20260506044804 | 60 | 86 | 0.0 | 0.0 | 0.00 | 0.06 | 0.00 | 74 | 1004.0 |
| 20260506042804 | 60 | 86 | 0.0 | 0.0 | 0.00 | 0.06 | 0.00 | 74 | 1004.0 |
| 20260506041304 | 61 | 86 | 0.0 | 0.0 | 0.00 | 0.06 | 0.00 | 74 | 1004.0 |
| 20260506040821 | 60 | 86 | 0.0 | 0.0 | 0.00 | 0.06 | 0.00 | 74 | 1004.0 |
| 20260506040305 | 60 | 86 | 0.0 | 0.0 | 0.00 | 0.06 | 0.00 | 75 | 1004.0 |
| 20260506035804 | 60 | 86 | 0.0 | 0.0 | 0.00 | 0.06 | 0.06 | 76 | 1004.0 |
| 20260506034804 | 60 | 86 | 0.0 | 0.0 | 0.00 | 0.06 | 0.06 | 76 | 1004.1 |
| 20260506032306 | 60 | 86 | 0.0 | 0.0 | 0.00 | 0.06 | 0.06 | 75 | 1004.1 |
| 20260506031804 | 60 | 86 | 0.0 | 0.0 | 0.00 | 0.06 | 0.06 | 75 | 1004.1 |
| 20260506030304 | 61 | 86 | 0.0 | 0.0 | 0.00 | 0.06 | 0.06 | 74 | 1004.0 |
| 20260506025804 | 61 | 86 | 0.0 | 0.0 | 0.00 | 0.06 | 0.06 | 74 | 1004.0 |
| 20260506025306 | 61 | 86 | 0.0 | 0.0 | 0.00 | 0.06 | 0.06 | 74 | 1004.0 |
| 20260506024804 | 61 | 86 | 0.0 | 0.0 | 0.00 | 0.06 | 0.06 | 74 | 1003.9 |
| 20260506023805 | 61 | 86 | 0.0 | 0.0 | 0.00 | 0.06 | 0.06 | 74 | 1003.9 |
| 20260506023305 | 61 | 86 | 0.0 | 0.0 | 0.00 | 0.06 | 0.06 | 73 | 1003.9 |
| 20260506022805 | 61 | 86 | 0.0 | 0.0 | 0.00 | 0.06 | 0.06 | 73 | 1003.9 |
| 20260506021804 | 61 | 86 | 0.0 | 0.0 | 0.00 | 0.06 | 0.06 | 74 | 1003.8 |
| 20260506020804 | 61 | 86 | 0.0 | 0.0 | 0.00 | 0.06 | 0.06 | 74 | 1003.8 |
| 20260506015804 | 61 | 86 | 0.0 | 0.0 | 0.00 | 0.06 | 0.06 | 74 | 1003.8 |
| 20260506015306 | 61 | 86 | 0.0 | 0.0 | 0.00 | 0.06 | 0.06 | 74 | 1003.8 |
| 20260506013305 | 61 | 86 | 0.0 | 0.0 | 0.00 | 0.06 | 0.06 | 73 | 1003.6 |
| 20260506012804 | 61 | 86 | 0.0 | 0.0 | 0.00 | 0.06 | 0.06 | 73 | 1003.6 |
| 20260506011804 | 61 | 86 | 0.0 | 0.0 | 0.00 | 0.06 | 0.06 | 74 | 1003.6 |
| 20260506011306 | 61 | 86 | 0.0 | 0.0 | 0.00 | 0.06 | 0.06 | 74 | 1003.6 |
| 20260506010804 | 62 | 86 | 0.0 | 0.0 | 0.00 | 0.06 | 0.06 | 74 | 1003.6 |
| 20260506005306 | 62 | 86 | 0.0 | 0.0 | 0.00 | 0.06 | 0.06 | 75 | 1003.2 |
| 20260506004304 | 62 | 86 | 0.0 | 0.0 | 0.00 | 0.06 | 0.06 | 75 | 1003.2 |
| 20260506003305 | 62 | 86 | 0.0 | 0.0 | 0.00 | 0.06 | 0.06 | 75 | 1003.1 |
| 20260506002805 | 62 | 86 | 0.0 | 0.0 | 0.00 | 0.06 | 0.06 | 76 | 1003.1 |
| 20260506002306 | 62 | 86 | 0.0 | 0.0 | 0.00 | 0.06 | 0.06 | 76 | 1003.1 |
| 20260506001805 | 62 | 86 | 0.0 | 0.0 | 0.00 | 0.06 | 0.06 | 76 | 1003.1 |
| 20260506001305 | 62 | 86 | 0.0 | 0.0 | 0.00 | 0.06 | 0.06 | 76 | 1003.1 |
| 20260506000805 | 61 | 86 | 0.0 | 0.0 | 0.00 | 0.06 | 0.06 | 77 | 1003.1 |
| 20260505235804 | 61 | 86 | 0.0 | 0.0 | 0.00 | 0.06 | 0.06 | 77 | 1003.1 |
| 20260505233805 | 61 | 86 | 0.0 | 0.0 | 0.00 | 0.06 | 0.06 | 77 | 1002.0 |
| 20260505233305 | 61 | 86 | 0.0 | 0.0 | 0.00 | 0.06 | 0.06 | 77 | 1002.0 |
| 20260505232805 | 61 | 86 | 0.0 | 0.0 | 0.00 | 0.06 | 0.06 | 78 | 1002.0 |
| 20260505232305 | 61 | 86 | 0.0 | 0.0 | 0.00 | 0.06 | 0.06 | 78 | 1002.0 |
| 20260505231804 | 61 | 86 | 0.0 | 0.0 | 0.00 | 0.06 | 0.06 | 78 | 1002.0 |
| 20260505231304 | 61 | 86 | 0.0 | 0.0 | 0.00 | 0.06 | 0.06 | 79 | 1002.0 |
| 20260505230304 | 61 | 86 | 0.0 | 0.0 | 0.00 | 0.06 | 0.06 | 80 | 1002.0 |
| 20260505223805 | 62 | 86 | 0.0 | 0.0 | 0.00 | 0.06 | 0.06 | 80 | 1002.0 |
| 20260505222804 | 61 | 86 | 0.0 | 3.0 | 0.01 | 0.06 | 0.06 | 80 | 1002.1 |
| 20260505222306 | 61 | 330 | 0.0 | 0.0 | 0.02 | 0.06 | 0.06 | 80 | 1002.1 |
| 20260505221805 | 61 | 329 | 0.0 | 0.0 | 0.02 | 0.06 | 0.06 | 79 | 1001.5 |
| 20260505220805 | 61 | 329 | 0.0 | 1.0 | 0.03 | 0.06 | 0.06 | 78 | 1001.0 |
| 20260505215804 | 62 | 342 | 0.0 | 0.0 | 0.06 | 0.06 | 0.06 | 78 | 1001.0 |
| 20260505212306 | 62 | 71 | 0.0 | 0.0 | 0.04 | 0.04 | 0.04 | 74 | 1001.0 |
| 20260505210805 | 65 | 189 | 2.0 | 12.0 | 0.03 | 0.03 | 0.03 | 66 | 1000.9 |
| 20260505205305 | 79 | 152 | 6.0 | 13.0 | 0.00 | 0.00 | 0.00 | 28 | 998.8 |
| 20260505203304 | 81 | 109 | 0.0 | 3.0 | 0.00 | 0.00 | 0.00 | 23 | 998.8 |
| 20260505202805 | 81 | 109 | 2.0 | 9.0 | 0.00 | 0.00 | 0.00 | 23 | 998.8 |
| 20260505202307 | 81 | 105 | 2.0 | 6.0 | 0.00 | 0.00 | 0.00 | 23 | 998.8 |
| 20260505201805 | 81 | 114 | 2.0 | 10.0 | 0.00 | 0.00 | 0.00 | 24 | 998.8 |
| 20260505200305 | 81 | 91 | 2.0 | 7.0 | 0.00 | 0.00 | 0.00 | 23 | 998.8 |
| 20260505195305 | 82 | 187 | 2.0 | 10.0 | 0.00 | 0.00 | 0.00 | 22 | 998.8 |
| 20260505194804 | 82 | 214 | 2.0 | 7.0 | 0.00 | 0.00 | 0.00 | 22 | 998.8 |
| 20260505193805 | 82 | 188 | 1.0 | 7.0 | 0.00 | 0.00 | 0.00 | 22 | 998.8 |
| 20260505192805 | 81 | 167 | 3.0 | 12.0 | 0.00 | 0.00 | 0.00 | 23 | 998.9 |
| 20260505191805 | 82 | 130 | 1.0 | 6.0 | 0.00 | 0.00 | 0.00 | 22 | 998.9 |
| 20260505190305 | 82 | 128 | 2.0 | 9.0 | 0.00 | 0.00 | 0.00 | 22 | 999.0 |
| 20260505185804 | 82 | 73 | 1.0 | 10.0 | 0.00 | 0.00 | 0.00 | 22 | 1000.4 |
| 20260505185305 | 82 | 157 | 0.0 | 12.0 | 0.00 | 0.00 | 0.00 | 22 | 1000.4 |
| 20260505184805 | 81 | 171 | 2.0 | 5.0 | 0.00 | 0.00 | 0.00 | 22 | 1000.4 |
| 20260505184305 | 81 | 139 | 1.0 | 7.0 | 0.00 | 0.00 | 0.00 | 22 | 1000.4 |
| 20260505182306 | 81 | 207 | 1.0 | 3.0 | 0.00 | 0.00 | 0.00 | 22 | 1000.4 |
| 20260505181805 | 82 | 135 | 2.0 | 12.0 | 0.00 | 0.00 | 0.00 | 21 | 1000.4 |
| 20260505175804 | 82 | 131 | 2.0 | 10.0 | 0.00 | 0.00 | 0.00 | 22 | 1000.4 |
| 20260505174304 | 81 | 173 | 3.0 | 9.0 | 0.00 | 0.00 | 0.00 | 23 | 1000.4 |
| 20260505173805 | 81 | 137 | 3.0 | 7.0 | 0.00 | 0.00 | 0.00 | 24 | 1000.4 |
| 20260505173304 | 81 | 16 | 1.0 | 6.0 | 0.00 | 0.00 | 0.00 | 26 | 1000.6 |
| 20260505171804 | 80 | 178 | 1.0 | 6.0 | 0.00 | 0.00 | 0.00 | 27 | 1000.6 |
| 20260505171305 | 81 | 181 | 1.0 | 3.0 | 0.00 | 0.00 | 0.00 | 27 | 1000.6 |
| 20260505170804 | 82 | 183 | 2.0 | 7.0 | 0.00 | 0.00 | 0.00 | 26 | 1000.6 |
| 20260505170305 | 82 | 112 | 1.0 | 10.0 | 0.00 | 0.00 | 0.00 | 24 | 1000.6 |
| 20260505165804 | 81 | 84 | 3.0 | 9.0 | 0.00 | 0.00 | 0.00 | 25 | 1000.6 |
| 20260505165306 | 80 | 134 | 3.0 | 12.0 | 0.00 | 0.00 | 0.00 | 27 | 1000.8 |
| 20260505163804 | 78 | 175 | 2.0 | 7.0 | 0.00 | 0.00 | 0.00 | 29 | 1001.0 |
| 20260505162804 | 78 | 190 | 1.0 | 3.0 | 0.00 | 0.00 | 0.00 | 30 | 1001.3 |
| 20260505161804 | 77 | 186 | 2.0 | 6.0 | 0.00 | 0.00 | 0.00 | 31 | 1002.1 |
| 20260505161304 | 77 | 188 | 1.0 | 6.0 | 0.00 | 0.00 | 0.00 | 31 | 1002.1 |
| 20260505153305 | 73 | 180 | 1.0 | 3.0 | 0.00 | 0.00 | 0.00 | 36 | 1003.6 |
| 20260505152805 | 73 | 190 | 1.0 | 3.0 | 0.00 | 0.00 | 0.00 | 35 | 1003.6 |
| 20260505151804 | 72 | 200 | 0.0 | 0.0 | 0.00 | 0.00 | 0.00 | 36 | 1003.6 |
| 20260505151304 | 72 | 177 | 0.0 | 2.0 | 0.00 | 0.00 | 0.00 | 36 | 1003.6 |
| 20260505150804 | 72 | 159 | 0.0 | 6.0 | 0.00 | 0.00 | 0.00 | 36 | 1003.6 |
| 20260505140304 | 67 | 171 | 0.0 | 1.0 | 0.00 | 0.00 | 0.00 | 43 | 1004.1 |
| 20260505124804 | 58 | 224 | 0.0 | 3.0 | 0.00 | 0.00 | 0.00 | 55 | 1004.0 |
| 20260505124304 | 58 | 121 | 0.0 | 1.0 | 0.00 | 0.00 | 0.00 | 55 | 1003.9 |
| 20260505123804 | 57 | 133 | 1.0 | 3.0 | 0.00 | 0.00 | 0.00 | 56 | 1003.9 |
| 20260505123304 | 57 | 177 | 0.0 | 1.0 | 0.00 | 0.00 | 0.00 | 57 | 1003.9 |
| 20260505122804 | 57 | 121 | 0.0 | 3.0 | 0.00 | 0.00 | 0.00 | 56 | 1003.9 |
| 20260505122305 | 56 | 166 | 0.0 | 3.0 | 0.00 | 0.00 | 0.00 | 57 | 1003.9 |
| 20260505121304 | 56 | 226 | 0.0 | 1.0 | 0.00 | 0.00 | 0.00 | 56 | 1003.8 |
| 20260505120304 | 57 | 178 | 0.0 | 2.0 | 0.00 | 0.00 | 0.00 | 56 | 1003.8 |
| 20260505115804 | 57 | 219 | 0.0 | 0.0 | 0.00 | 0.00 | 0.00 | 55 | 1003.8 |
| 20260505115305 | 56 | 219 | 0.0 | 2.0 | 0.00 | 0.00 | 0.00 | 56 | 1003.8 |
| 20260505114304 | 56 | 186 | 0.0 | 2.0 | 0.00 | 0.00 | 0.00 | 57 | 1003.8 |
| 20260505113805 | 55 | 180 | 0.0 | 3.0 | 0.00 | 0.00 | 0.00 | 57 | 1003.8 |
| 20260505113305 | 55 | 180 | 0.0 | 2.0 | 0.00 | 0.00 | 0.00 | 58 | 1003.8 |
| 20260505112804 | 55 | 180 | 0.0 | 1.0 | 0.00 | 0.00 | 0.00 | 58 | 1003.8 |
| 20260505112305 | 54 | 180 | 1.0 | 7.0 | 0.00 | 0.00 | 0.00 | 60 | 1003.8 |
| 20260505110805 | 54 | 331 | 0.0 | 2.0 | 0.00 | 0.00 | 0.00 | 61 | 1003.8 |
| 20260505101304 | 50 | 194 | 0.0 | 0.0 | 0.00 | 0.00 | 0.00 | 65 | 1003.8 |